Weather in Santa Cruz de la Palma

Spain     28°41′01″N   17°45′48″W
temp.,
°C
wind,
m/s
gust,
m/s
humid.,
%
clouds,
%
prec.,
mm/h
press.,
hPa
HPBL,
m
11 may, tue
tue1101:00+16ne668090 0.1 1024837
04:00+15ne667842 0.0 1023783
07:00+15ene667977 0.0 1023745
10:00+16ne667324 0.0 1024786
13:00+17ene567190 0.0 1025669
16:00+17ne55717 0.0 1024697
19:00+17ne667528 0.0 1024706
22:00+16ne787933 0.0 1025761
12 may, wed
wed1201:00+15ne67766 0.0 1025631
04:00+14ne678087 0.0 1024526
07:00+14ne678364 0.0 1024467
10:00+16ne677463 0.0 1025624
13:00+16ne677397 0.0 1025558
16:00+17ne677368 0.0 1024537
19:00+16ne677578 0.0 1024427
22:00+15ne6784100 0.0 1025432
13 may, thu
thu1301:00+15nne678518 0.0 1025415
04:00+16nne788845 0.0 1023573
07:00+16ne688879 0.1 1023612
10:00+17ne678661 0.1 1024611
13:00+18ne678236 0.1 1023642
16:00+18ne778250 0.1 1022673
19:00+18ne888662 0.2 1021686
22:00+16ne887926 0.1 1023710
14 may, fri
fri1401:00+16ne798326 0.1 1023681
04:00+16ne688527 0.0 1021605
07:00+16ne798765 0.1 1021699
10:00+17ne788132 0.0 1022672
13:00+18ne788027 0.1 1022582
16:00+18ne787732 0.1 1021675
19:00+18nne787924 0.1 1021681
22:00+17nne788368 0.0 1022606
15 may, sat
sat1501:00+16ne798554 0.0 1021648
04:00+16nne798652 0.0 1019642
07:00+16ne688326 0.1 1019650
10:00+17ne787923 0.0 1020657
13:00+18ne67753 0.0 1020581
16:00+19nne887419 0.0 1019577
19:00+18nne787811 0.0 1018577
22:00+17nne678418 0.0 1019434